EW7966 Weather Reports


time (UTC)temp
F
wind
direction
speed
knots
gust
knots
rain 1hr
in
rain 24hr
in
rain mn
in
humidity
%
barometer
mb
20260831020007 62 204 0.9 1.7 0.00 0.00 0.00 74 1020.1
20260831020004 62 204 0.0 1.7 0.00 0.00 0.00 74 1005.5
20260831015505 62 204 0.9 1.7 0.00 0.00 0.00 75 1020.0
20260831015005 62 204 0.9 1.7 0.00 0.00 0.00 74 1019.9
20260831014505 62 204 0.9 2.6 0.00 0.00 0.00 73 1019.9
20260831014006 63 204 0.9 2.6 0.00 0.00 0.00 73 1019.8
20260831013504 63 204 1.7 2.6 0.00 0.00 0.00 72 1019.9
20260831013004 64 204 0.9 2.6 0.00 0.00 0.00 71 1005.2
20260831012505 64 204 0.9 1.7 0.00 0.00 0.00 71 1019.9
20260831012006 64 204 0.9 2.6 0.00 0.00 0.00 71 1019.9
20260831011504 64 204 0.9 4.3 0.00 0.00 0.00 71 1020.0
20260831011006 64 204 2.6 4.3 0.00 0.00 0.00 71 1020.0
20260831010506 64 204 1.7 5.2 0.00 0.00 0.00 70 1020.1
20260831010007 64 204 1.7 5.2 0.00 0.00 0.00 70 1020.1
20260831010004 64 204 1.7 5.2 0.00 0.00 0.00 70 1005.4
20260831005504 64 234 1.7 4.3 0.00 0.00 0.00 70 1020.2
20260831004505 64 200 1.7 2.6 0.00 0.00 0.00 71 1020.1
20260831004503 64 200 1.7 2.6 0.00 0.00 0.00 71 1005.4
20260831004006 64 200 1.7 4.3 0.00 0.00 0.00 70 1020.3
20260831003003 64 183 1.7 3.5 0.00 0.00 0.00 70 1005.6
20260831002505 63 325 1.7 3.5 0.00 0.00 0.00 70 1020.4
20260831002006 63 325 1.7 1.7 0.00 0.00 0.00 71 1020.5
20260831001505 63 325 0.0 1.7 0.00 0.00 0.00 71 1020.5
20260831001006 63 325 0.9 8.7 0.00 0.00 0.00 71 1020.4
20260831000507 63 325 3.5 9.6 0.00 0.00 0.00 71 1020.5
20260831000007 64 299 5.2 9.6 0.00 0.00 0.00 70 1021.0
20260831000005 64 299 4.3 9.6 0.00 0.00 0.00 70 1006.0
20260830235505 63 117 2.6 5.2 0.00 0.00 0.00 70 1021.1
20260830234506 62 90 2.6 3.5 0.00 0.00 0.00 74 1020.8
20260830234504 62 90 1.7 3.5 0.00 0.00 0.00 74 1005.8
20260830234005 62 320 0.0 2.6 0.00 0.00 0.00 73 1020.9
20260830233505 62 320 1.7 3.5 0.00 0.00 0.00 74 1021.0
20260830233006 61 320 1.7 5.2 0.00 0.00 0.00 74 1021.1
20260830233003 61 320 0.9 5.2 0.00 0.00 0.00 74 1006.1
20260830232504 62 346 2.6 5.2 0.00 0.00 0.00 73 1021.2
20260830232002 62 305 1.7 4.3 0.00 0.00 0.00 73 1021.3
20260830231505 62 305 1.7 7.0 0.00 0.00 0.00 72 1006.2
20260830231005 62 319 4.3 10.4 0.00 0.00 0.00 70 1021.4
20260830230505 63 293 2.6 12.2 0.00 0.00 0.00 68 1021.3
20260830230006 64 311 9.6 13.9 0.00 0.00 0.00 64 1021.3
20260830230004 64 311 8.7 13.9 0.00 0.00 0.00 64 1006.3
20260830225504 65 308 8.7 11.3 0.00 0.00 0.00 60 1021.4
20260830224506 65 291 4.3 7.8 0.00 0.00 0.00 55 1021.2
20260830224504 65 291 4.3 7.8 0.00 0.00 0.00 55 1006.1
20260830223504 66 311 5.2 13.9 0.00 0.00 0.00 53 1020.9
20260830223006 66 329 6.1 16.5 0.00 0.00 0.00 54 1020.9
20260830223003 66 329 5.2 16.5 0.00 0.00 0.00 54 1005.7
20260830221504 67 290 11.3 20.9 0.00 0.00 0.00 48 1005.4
20260830221006 68 311 10.4 20.9 0.00 0.00 0.00 47 1020.7
20260830220506 68 301 12.2 21.7 0.00 0.00 0.00 47 1020.7
20260830220008 68 301 12.2 25.2 0.00 0.00 0.00 46 1020.4
20260830220003 68 301 12.2 25.2 0.00 0.00 0.00 46 1005.1
20260830215506 69 319 14.8 25.2 0.00 0.00 0.00 45 1020.2
20260830215006 71 298 13.0 22.6 0.00 0.00 0.00 44 1019.8
20260830214505 75 330 8.7 37.4 0.00 0.00 0.00 41 1019.8
20260830214005 79 319 3.5 7.8 0.00 0.00 0.00 34 1019.4
20260830213505 79 224 1.7 7.0 0.00 0.00 0.00 34 1018.8
20260830213005 79 256 1.7 3.5 0.00 0.00 0.00 32 1018.8
20260830212505 79 256 0.9 5.2 0.00 0.00 0.00 32 1018.8
20260830212005 79 256 0.9 5.2 0.00 0.00 0.00 33 1018.7
20260830211504 80 207 1.7 3.5 0.00 0.00 0.00 34 1018.6
20260830211005 80 254 1.7 4.3 0.00 0.00 0.00 32 1018.5
20260830210505 80 254 1.7 7.0 0.00 0.00 0.00 33 1018.6
20260830210006 80 285 3.5 7.0 0.00 0.00 0.00 32 1018.5
20260830210004 80 285 3.5 7.0 0.00 0.00 0.00 32 1003.0
20260830205505 80 247 2.6 5.2 0.00 0.00 0.00 33 1018.6
20260830205005 80 256 2.6 4.3 0.00 0.00 0.00 33 1018.8
20260830204505 79 273 1.7 6.1 0.00 0.00 0.00 33 1018.8
20260830204503 79 273 1.7 6.1 0.00 0.00 0.00 33 1003.4
20260830204005 79 213 2.6 7.8 0.00 0.00 0.00 33 1018.8
20260830203505 79 199 4.3 7.8 0.00 0.00 0.00 33 1018.6
20260830203009 79 207 2.6 6.1 0.00 0.00 0.00 31 1003.2
20260830203007 79 207 2.6 6.1 0.00 0.00 0.00 31 1018.6
20260830202505 79 227 2.6 7.0 0.00 0.00 0.00 34 1018.7
20260830201504 80 163 4.3 9.6 0.00 0.00 0.00 33 1018.7
20260830201006 80 148 7.0 9.6 0.00 0.00 0.00 33 1018.6
20260830200505 80 164 2.6 8.7 0.00 0.00 0.00 33 1018.6
20260830200006 80 317 4.3 8.7 0.00 0.00 0.00 31 1018.5
20260830200004 80 317 3.5 8.7 0.00 0.00 0.00 31 1003.1
20260830194505 80 300 3.5 7.0 0.00 0.00 0.00 31 1018.7
20260830194503 80 300 2.6 7.0 0.00 0.00 0.00 31 1003.3
20260830194006 80 238 4.3 7.0 0.00 0.00 0.00 31 1018.8
20260830193505 81 290 4.3 9.6 0.00 0.00 0.00 31 1018.6
20260830193006 81 292 5.2 9.6 0.00 0.00 0.00 29 1018.7
20260830193003 81 292 5.2 9.6 0.00 0.00 0.00 29 1003.2
20260830192504 81 272 3.5 7.8 0.00 0.00 0.00 30 1018.7
20260830192005 81 262 3.5 9.6 0.00 0.00 0.00 30 1018.7
20260830191505 82 259 6.1 9.6 0.00 0.00 0.00 30 1018.8
20260830191006 82 144 5.2 10.4 0.00 0.00 0.00 30 1018.8
20260830190012 81 274 3.5 8.7 0.00 0.00 0.00 29 1003.6
20260830190007 81 274 4.3 8.7 0.00 0.00 0.00 29 1019.1
20260830185505 80 267 0.9 7.0 0.00 0.00 0.00 31 1019.1
20260830185006 80 247 1.7 7.0 0.00 0.00 0.00 32 1019.1
20260830184504 80 65 1.7 5.2 0.00 0.00 0.00 32 1019.0
20260830184005 80 329 2.6 7.0 0.00 0.00 0.00 33 1019.1
20260830183006 79 287 1.7 9.6 0.00 0.00 0.00 35 1019.2
20260830183003 79 287 1.7 9.6 0.00 0.00 0.00 35 1003.6
20260830182505 79 304 5.2 10.4 0.00 0.00 0.00 34 1019.2
20260830182006 79 297 5.2 12.2 0.00 0.00 0.00 35 1019.3
20260830181504 79 301 7.0 11.3 0.00 0.00 0.00 36 1019.4
20260830180505 79 256 4.3 7.8 0.00 0.00 0.00 34 1019.5
20260830180008 78 257 2.6 7.8 0.00 0.00 0.00 35 1003.9
20260830180006 78 257 3.5 7.8 0.00 0.00 0.00 35 1019.5
20260830174505 78 287 4.3 13.9 0.00 0.00 0.00 36 1019.7
20260830174503 78 287 3.5 13.9 0.00 0.00 0.00 36 1004.2
20260830174007 78 279 4.3 13.9 0.00 0.00 0.00 39 1019.8
20260830173505 77 279 5.2 9.6 0.00 0.00 0.00 37 1020.0
20260830173006 77 201 3.5 10.4 0.00 0.00 0.00 37 1004.5
20260830172504 77 294 3.5 10.4 0.00 0.00 0.00 40 1020.0
20260830172005 76 246 3.5 13.9 0.00 0.00 0.00 40 1020.0
20260830171506 76 306 6.1 15.6 0.00 0.00 0.00 39 1020.1
20260830171504 76 306 6.1 15.6 0.00 0.00 0.00 39 1004.6
20260830171005 76 310 9.6 15.6 0.00 0.00 0.00 40 1020.1
20260830170506 77 292 5.2 12.2 0.00 0.00 0.00 39 1020.3
20260830170007 76 289 4.3 11.3 0.00 0.00 0.00 41 1020.2
20260830170003 76 289 3.5 11.3 0.00 0.00 0.00 41 1004.6
20260830165505 76 299 6.1 11.3 0.00 0.00 0.00 38 1020.2
20260830165006 76 282 4.3 8.7 0.00 0.00 0.00 41 1020.2
20260830164508 75 308 3.5 8.7 0.00 0.00 0.00 42 1004.6
20260830164505 75 308 3.5 8.7 0.00 0.00 0.00 42 1020.1
20260830164006 74 248 4.3 7.0 0.00 0.00 0.00 42 1020.0
20260830163504 74 246 3.5 7.8 0.00 0.00 0.00 45 1020.0
20260830163007 72 250 3.5 7.8 0.00 0.00 0.00 46 1020.0
20260830163003 72 250 2.6 7.8 0.00 0.00 0.00 46 1004.5
20260830162505 71 266 4.3 7.8 0.00 0.00 0.00 47 1020.1
20260830162006 71 231 1.7 5.2 0.00 0.00 0.00 49 1020.1
20260830161504 70 224 0.9 4.3 0.00 0.00 0.00 52 1004.7
20260830161006 70 262 0.9 6.1 0.00 0.00 0.00 52 1020.1
20260830160506 69 229 2.6 6.1 0.00 0.00 0.00 51 1020.1
20260830160011 69 243 2.6 8.7 0.00 0.00 0.00 53 1004.5
20260830160007 69 243 2.6 8.7 0.00 0.00 0.00 53 1020.1
20260830155504 69 276 4.3 8.7 0.00 0.00 0.00 51 1020.0
20260830155007 69 229 4.3 7.8 0.00 0.00 0.00 53 1019.9
20260830154506 69 212 4.3 7.8 0.00 0.00 0.00 53 1019.8
20260830153006 68 231 4.3 7.8 0.00 0.00 0.00 56 1019.7
20260830153003 68 231 4.3 7.8 0.00 0.00 0.00 56 1004.1
20260830152506 68 238 3.5 6.1 0.00 0.00 0.00 56 1019.7
20260830152006 67 226 3.5 7.8 0.00 0.00 0.00 56 1019.7
20260830151505 67 239 4.3 7.8 0.00 0.00 0.00 55 1019.8
20260830151503 67 239 3.5 7.8 0.00 0.00 0.00 55 1004.2
20260830151006 67 245 3.5 7.0 0.00 0.00 0.00 58 1019.6
20260830150504 66 185 3.5 6.1 0.00 0.00 0.00 59 1019.8
20260830150006 66 281 2.6 7.8 0.00 0.00 0.00 59 1019.6
20260830150003 66 281 2.6 7.8 0.00 0.00 0.00 59 1004.1
20260830145504 66 214 3.5 7.8 0.00 0.00 0.00 59 1019.6
20260830145006 66 214 2.6 7.8 0.00 0.00 0.00 58 1019.7
20260830144505 66 247 4.3 7.0 0.00 0.00 0.00 58 1019.6
20260830144503 66 247 3.5 7.0 0.00 0.00 0.00 58 1004.1
20260830144005 66 236 4.3 8.7 0.00 0.00 0.00 58 1019.7
20260830143505 66 221 4.3 8.7 0.00 0.00 0.00 57 1019.6
20260830143006 66 227 4.3 9.6 0.00 0.00 0.00 56 1019.6
20260830143004 66 227 3.5 9.6 0.00 0.00 0.00 56 1004.1
20260830142504 66 240 4.3 9.6 0.00 0.00 0.00 56 1019.6
20260830142005 66 257 4.3 7.8 0.00 0.00 0.00 57 1019.7
20260830141505 66 220 3.5 8.7 0.00 0.00 0.00 58 1019.5
20260830141502 66 220 2.6 8.7 0.00 0.00 0.00 58 1004.0
20260830140505 65 174 2.6 6.1 0.00 0.00 0.00 58 1019.4
20260830140007 65 188 2.6 5.2 0.00 0.00 0.00 58 1019.4
20260830140003 65 188 2.6 5.2 0.00 0.00 0.00 58 1003.8
20260830135005 64 205 3.5 9.6 0.00 0.00 0.00 58 1019.4
20260830134509 64 165 3.5 9.6 0.00 0.00 0.00 59 1003.9
20260830134005 64 191 3.5 8.7 0.00 0.00 0.00 59 1019.4
20260830133504 64 223 3.5 7.0 0.00 0.00 0.00 59 1019.5
20260830133006 63 243 3.5 6.1 0.00 0.00 0.00 59 1019.4
20260830132005 63 192 3.5 6.1 0.00 0.00 0.00 60 1019.3
20260830131503 62 194 1.7 7.0 0.00 0.00 0.00 61 1003.9
20260830131006 62 219 3.5 7.0 0.00 0.00 0.00 61 1019.2
20260830130505 62 175 4.3 7.0 0.00 0.00 0.00 62 1019.1
20260830130006 61 209 2.6 6.1 0.00 0.00 0.00 63 1019.0
20260830130003 61 209 2.6 6.1 0.00 0.00 0.00 63 1003.6
20260830125005 60 202 1.7 2.6 0.00 0.00 0.00 65 1018.8
20260830124507 59 202 0.0 2.6 0.00 0.00 0.00 64 1003.5
20260830124505 59 202 0.9 2.6 0.00 0.00 0.00 64 1018.9
20260830124006 60 202 0.9 1.7 0.00 0.00 0.00 63 1018.9
20260830123505 60 202 0.9 2.6 0.00 0.00 0.00 62 1018.8
20260830123005 61 202 0.0 3.5 0.00 0.00 0.00 61 1018.8
20260830123003 61 202 0.0 3.5 0.00 0.00 0.00 61 1003.5
20260830122505 61 202 2.6 3.5 0.00 0.00 0.00 61 1018.9
20260830122006 60 202 1.7 3.5 0.00 0.00 0.00 61 1018.9
20260830121504 60 202 0.9 1.7 0.00 0.00 0.00 61 1003.5
20260830121005 61 202 0.0 2.6 0.00 0.00 0.00 61 1018.8
20260830120006 60 202 1.7 3.5 0.00 0.00 0.00 62 1018.7
20260830120004 60 202 1.7 3.5 0.00 0.00 0.00 62 1003.4
20260830115505 59 202 0.9 1.7 0.00 0.00 0.00 63 1018.6
20260830115005 60 202 0.9 3.5 0.00 0.00 0.00 63 1018.7
20260830114504 60 202 1.7 3.5 0.00 0.00 0.00 62 1018.6
20260830114033 61 202 0.9 4.3 0.00 0.00 0.00 60 1018.6
20260830113008 63 161 1.7 6.1 0.00 0.00 0.00 56 1003.3
20260830112505 63 167 4.3 7.8 0.00 0.00 0.00 56 1018.7
20260830112007 63 176 5.2 7.8 0.00 0.00 0.00 56 1018.7
20260830111505 63 187 5.2 6.1 0.00 0.00 0.00 56 1018.6
20260830111005 63 181 3.5 5.2 0.00 0.00 0.00 56 1018.6
20260830110505 63 181 3.5 5.2 0.00 0.00 0.00 56 1018.6
20260830110007 63 173 3.5 6.1 0.00 0.00 0.00 56 1018.6
20260830110003 63 173 2.6 6.1 0.00 0.00 0.00 56 1003.2
20260830105006 63 173 5.2 7.8 0.00 0.00 0.00 55 1018.4
20260830104505 64 180 5.2 7.8 0.00 0.00 0.00 55 1018.4
20260830104503 64 166 5.2 7.8 0.00 0.00 0.00 55 1002.9
20260830103505 64 168 4.3 7.0 0.00 0.00 0.00 55 1018.4
20260830103006 64 190 5.2 9.6 0.00 0.00 0.00 55 1018.5
20260830103004 64 190 4.3 9.6 0.00 0.00 0.00 55 1003.0
20260830102506 64 161 6.1 9.6 0.00 0.00 0.00 54 1018.5
20260830102005 64 171 6.1 8.7 0.00 0.00 0.00 54 1018.6
20260830101505 64 160 6.1 7.8 0.00 0.00 0.00 55 1018.5
20260830101503 64 160 5.2 7.8 0.00 0.00 0.00 55 1003.0
20260830101006 64 159 5.2 7.8 0.00 0.00 0.00 55 1018.5
20260830100504 64 153 5.2 8.7 0.00 0.00 0.00 55 1018.4
20260830100006 64 161 6.1 8.7 0.00 0.00 0.00 55 1018.5
20260830094506 64 181 3.5 6.1 0.00 0.00 0.00 56 1018.5
20260830094503 64 181 3.5 6.1 0.00 0.00 0.00 56 1002.9
20260830094006 64 169 4.3 6.1 0.00 0.00 0.00 56 1018.5
20260830093505 64 161 3.5 5.2 0.00 0.00 0.00 56 1018.6
20260830093006 64 178 3.5 5.2 0.00 0.00 0.00 57 1018.6
20260830093003 64 178 2.6 5.2 0.00 0.00 0.00 57 1003.0
20260830092505 63 178 3.5 5.2 0.00 0.00 0.00 57 1018.6
20260830091506 63 174 1.7 6.1 0.00 0.00 0.00 59 1018.8
20260830091503 63 174 1.7 6.1 0.00 0.00 0.00 59 1003.2
20260830090009 61 219 0.9 3.5 0.00 0.00 0.00 65 1002.9
20260830090006 61 219 0.9 3.5 0.00 0.00 0.00 65 1018.6
20260830085006 61 178 1.7 4.3 0.00 0.00 0.00 65 1018.6
20260830084505 61 227 2.6 4.3 0.00 0.00 0.00 65 1018.5
20260830084502 61 227 2.6 4.3 0.00 0.00 0.00 65 1002.9
20260830084005 60 227 3.5 5.2 0.00 0.00 0.00 66 1018.5
20260830083504 59 162 3.5 4.3 0.00 0.00 0.00 69 1018.5
20260830083005 58 227 1.7 2.6 0.00 0.00 0.00 71 1018.6
20260830083003 58 227 0.9 2.6 0.00 0.00 0.00 71 1003.0
20260830082504 58 227 0.0 0.9 0.00 0.00 0.00 73 1018.5
20260830082005 58 227 0.0 0.9 0.00 0.00 0.00 72 1018.4
20260830081504 58 227 0.0 0.9 0.00 0.00 0.00 72 1018.4
20260830081502 58 227 0.0 0.9 0.00 0.00 0.00 72 1002.8
20260830080504 59 227 0.0 1.7 0.00 0.00 0.00 72 1018.5
20260830080003 59 227 0.0 2.6 0.00 0.00 0.00 72 1003.0
20260830075504 59 227 1.7 2.6 0.00 0.00 0.00 71 1018.6
20260830075006 59 227 0.9 3.5 0.00 0.00 0.00 72 1018.6
20260830074505 59 227 2.6 3.5 0.00 0.00 0.00 71 1018.7
20260830074503 59 227 1.7 3.5 0.00 0.00 0.00 71 1003.2
20260830074006 59 227 1.7 3.5 0.00 0.00 0.00 71 1018.8
20260830073505 59 227 2.6 4.3 0.00 0.00 0.00 71 1018.8
20260830073006 59 227 1.7 4.3 0.00 0.00 0.00 72 1018.8
20260830073003 59 227 1.7 4.3 0.00 0.00 0.00 72 1003.2
20260830072504 59 227 2.6 3.5 0.00 0.00 0.00 72 1018.9
20260830071504 58 227 0.9 2.6 0.00 0.00 0.00 72 1003.4
20260830071001 58 227 0.9 2.6 0.00 0.00 0.00 72 1019.2
20260830070505 58 227 0.0 2.6 0.00 0.00 0.00 72 1019.3
20260830070008 58 227 0.9 2.6 0.00 0.00 0.00 72 1019.4
20260830070004 58 227 0.9 2.6 0.00 0.00 0.00 72 1003.8
20260830065007 58 227 2.6 4.3 0.00 0.00 0.00 72 1019.6
20260830064507 58 227 2.6 4.3 0.00 0.00 0.00 71 1004.0
20260830064505 58 227 3.5 4.3 0.00 0.00 0.00 71 1019.7
20260830064007 58 227 1.7 3.5 0.00 0.00 0.00 72 1019.7
20260830063504 58 227 1.7 2.6 0.00 0.00 0.00 73 1019.8
20260830063007 58 227 1.7 3.5 0.00 0.00 0.00 73 1019.7
20260830063003 58 227 0.9 3.5 0.00 0.00 0.00 73 1004.1
20260830062505 58 227 2.6 3.5 0.00 0.00 0.00 73 1019.8
20260830061505 58 227 0.0 3.5 0.00 0.00 0.00 74 1020.0
20260830061502 58 227 0.0 3.5 0.00 0.00 0.00 74 1004.4
20260830061006 58 227 2.6 4.3 0.00 0.00 0.00 73 1019.9
20260830060505 57 227 1.7 5.2 0.00 0.00 0.00 75 1019.9
20260830060007 57 227 1.7 5.2 0.00 0.00 0.00 76 1020.0
20260830055006 56 227 2.6 5.2 0.00 0.00 0.00 77 1020.1
20260830054511 56 37 1.7 3.5 0.00 0.00 0.00 77 1004.6
20260830054506 56 37 1.7 3.5 0.00 0.00 0.00 77 1020.2
20260830054006 56 37 1.7 3.5 0.00 0.00 0.00 77 1020.2
20260830053506 56 37 2.6 3.5 0.00 0.00 0.00 77 1020.3
20260830053006 56 37 1.7 4.3 0.00 0.00 0.00 77 1020.3
20260830053003 56 37 1.7 4.3 0.00 0.00 0.00 77 1004.6
20260830052006 56 37 1.7 2.6 0.00 0.00 0.00 76 1020.3
20260830051505 57 37 1.7 2.6 0.00 0.00 0.00 76 1020.3
20260830051503 57 37 1.7 2.6 0.00 0.00 0.00 76 1004.6
20260830051006 57 37 0.9 3.5 0.00 0.00 0.00 76 1020.4
20260830050504 56 37 1.7 3.5 0.00 0.00 0.00 76 1020.5
20260830050005 56 37 1.7 2.6 0.00 0.00 0.00 76 1004.7
20260830045506 56 37 1.7 2.6 0.00 0.00 0.00 76 1020.5
20260830045007 57 37 1.7 2.6 0.00 0.00 0.00 75 1020.6
20260830044505 57 37 0.9 1.7 0.00 0.00 0.00 74 1020.6
20260830044006 57 37 0.0 0.0 0.00 0.00 0.00 74 1020.6
20260830043505 57 37 0.0 2.6 0.00 0.00 0.00 74 1020.7
20260830043006 57 37 0.9 2.6 0.00 0.00 0.00 73 1020.6
20260830043004 57 37 0.0 2.6 0.00 0.00 0.00 73 1004.8
20260830042006 58 37 0.9 2.6 0.00 0.00 0.00 73 1020.8
20260830041504 58 37 1.7 3.5 0.00 0.00 0.00 72 1005.1
20260830041006 58 37 1.7 2.6 0.00 0.00 0.00 72 1021.0
20260830040004 59 37 0.0 3.5 0.00 0.00 0.00 70 1005.1
20260830035505 59 37 1.7 3.5 0.00 0.00 0.00 70 1021.2
20260830035001 60 37 2.6 7.0 0.00 0.00 0.00 69 1021.1
20260830034504 60 37 3.5 9.6 0.00 0.00 0.00 69 1021.0
20260830034005 60 22 5.2 11.3 0.00 0.00 0.00 69 1021.0
20260830033505 60 16 7.8 11.3 0.00 0.00 0.00 68 1021.0
20260830033006 61 32 7.8 11.3 0.00 0.00 0.00 69 1020.9
20260830033003 61 32 7.0 11.3 0.00 0.00 0.00 69 1004.9
20260830032506 61 24 7.8 13.9 0.00 0.00 0.00 70 1020.9
20260830031506 60 24 7.0 12.2 0.00 0.00 0.00 72 1020.7
20260830031503 60 24 6.1 12.2 0.00 0.00 0.00 72 1004.7
20260830030004 61 215 2.6 5.2 0.00 0.00 0.00 68 1003.5
20260830025506 61 219 2.6 5.2 0.00 0.00 0.00 68 1019.7
20260830024504 61 205 2.6 4.3 0.00 0.00 0.00 69 1019.8
20260830024006 61 205 0.0 3.5 0.00 0.00 0.00 68 1019.7
20260830023505 62 205 1.7 4.3 0.00 0.00 0.00 68 1019.7
20260830023004 62 205 2.6 4.3 0.00 0.00 0.00 67 1003.4
20260830022506 62 135 2.6 3.5 0.00 0.00 0.00 66 1019.6
20260830022006 63 135 1.7 3.5 0.00 0.00 0.00 65 1019.5
20260830021504 63 135 0.9 5.2 0.00 0.00 0.00 65 1003.2
20260830020505 64 110 1.7 2.6 0.00 0.00 0.00 63 1019.3